Total_Precipitation_Accumulation
0.01 0.09 0.18 0.59 0.47 0.26 0.08 0.00 0.00 0.01 0.01 0.00 0.01 0.03 0.03 0.08 0.37 0.55 0.05 0.02 0.01 0.00 0.01 0.11 0.25 0.10 0.06 0.03 0.00 0.00 0.00 0.00 0.00 0.01 0.03 0.04 0.08 0.04 0.03 0.05 0.13 0.10 0.11 0.14 0.06 0.04 0.04 0.03 0.08
0.08 0.32 0.19 0.95 0.81 0.20 0.05 0.00 0.00 0.00 0.00 0.00 0.00 0.00 0.01 0.03 0.00 0.01 0.01 0.00 0.00 0.00 0.00 0.01 0.17 0.14 0.06 0.00 0.00 0.00 0.00 0.01 0.04 0.05 0.13 0.07 0.07 0.08 0.11 0.10 0.20 0.13 0.09 0.08 0.02 0.02 0.02 0.06 0.11
0.18 0.18 0.33 1.47 1.14 0.20 0.03 0.00 0.00 0.00 0.00 0.00 0.00 0.01 0.01 0.00 0.00 0.01 0.02 0.02 0.01 0.01 0.05 0.00 0.08 0.10 0.11 0.01 0.01 0.00 0.01 0.05 0.17 0.26 0.22 0.15 0.14 0.10 0.12 0.21 0.13 0.08 0.07 0.05 0.02 0.01 0.00 0.01 0.03
0.17 0.37 0.74 0.55 0.67 0.14 0.02 0.00 0.00 0.00 0.00 0.00 0.00 0.00 0.00 0.00 0.00 0.01 0.06 0.08 0.08 0.17 0.18 0.13 0.04 0.11 0.16 0.04 0.03 0.01 0.01 0.07 0.36 0.36 0.19 0.21 0.12 0.11 0.20 0.24 0.10 0.11 0.06 0.06 0.02 0.00 0.00 0.00 0.00
0.16 0.56 1.49 0.84 0.52 0.09 0.01 0.00 0.00 0.00 0.00 0.00 0.00 0.00 0.00 0.00 0.01 0.02 0.10 0.15 0.09 0.13 0.24 0.51 0.16 0.24 0.13 0.14 0.16 0.05 0.01 0.13 0.33 0.11 0.19 0.17 0.16 0.18 0.29 0.21 0.11 0.03 0.02 0.00 0.00 0.00 0.00 0.00 0.00
0.19 0.26 0.82 0.45 0.43 0.17 0.01 0.00 0.00 0.00 0.00 0.00 0.00 0.00 0.00 0.02 0.02 0.07 0.03 0.05 0.15 0.20 0.23 0.92 0.35 0.45 0.30 0.21 0.29 0.19 0.02 0.26 0.24 0.16 0.33 0.35 0.41 0.51 0.29 0.11 0.04 0.00 0.00 0.00 0.00 0.00 0.00 0.00 0.01
0.05 0.13 0.51 0.43 0.27 0.59 0.04 0.00 0.00 0.00 0.00 0.00 0.00 0.00 0.00 0.01 0.03 0.03 0.02 0.10 0.09 0.19 0.32 0.63 0.61 0.13 0.27 0.36 0.44 0.59 0.22 0.40 0.30 0.28 0.28 0.32 0.27 0.36 0.20 0.06 0.01 0.00 0.00 0.00 0.00 0.00 0.00 0.00 0.00
0.00 0.12 0.54 0.26 0.12 0.44 0.05 0.00 0.00 0.00 0.00 0.00 0.00 0.01 0.00 0.00 0.02 0.03 0.03 0.05 0.04 0.11 0.20 0.09 0.55 0.65 0.34 0.38 0.31 0.48 0.53 0.48 0.45 0.29 0.32 0.37 0.24 0.18 0.09 0.01 0.00 0.00 0.00 0.00 0.00 0.00 0.00 0.00 0.00
0.11 0.65 0.48 0.13 0.12 0.10 0.02 0.01 0.00 0.00 0.00 0.00 0.00 0.00 0.00 0.00 0.01 0.02 0.02 0.04 0.03 0.03 0.04 0.01 0.09 0.54 0.43 0.47 0.35 0.47 0.54 0.46 0.46 0.19 0.28 0.31 0.13 0.04 0.01 0.01 0.00 0.00 0.00 0.00 0.00 0.00 0.01 0.00 0.00
0.13 0.51 0.39 0.07 0.10 0.18 0.04 0.00 0.00 0.00 0.00 0.00 0.00 0.00 0.00 0.00 0.00 0.01 0.00 0.03 0.02 0.05 0.04 0.04 0.16 0.04 0.12 0.17 0.62 0.62 0.44 0.41 0.32 0.56 0.64 0.34 0.15 0.01 0.00 0.00 0.00 0.00 0.00 0.00 0.00 0.00 0.00 0.00 0.02
0.10 0.22 0.19 0.23 0.06 0.37 0.06 0.00 0.00 0.00 0.02 0.00 0.00 0.00 0.00 0.00 0.00 0.00 0.01 0.01 0.01 0.02 0.01 0.01 0.02 0.01 0.08 0.19 0.15 0.21 0.21 0.16 0.19 0.16 0.31 0.09 0.01 0.00 0.00 0.00 0.00 0.01 0.00 0.00 0.00 0.00 0.00 0.00 0.01
0.12 0.03 0.18 0.21 0.02 0.06 0.08 0.14 0.02 0.02 0.02 0.00 0.00 0.00 0.00 0.00 0.01 0.01 0.01 0.02 0.01 0.00 0.00 0.01 0.01 0.00 0.06 0.08 0.07 0.16 0.10 0.09 0.22 0.22 0.13 0.02 0.00 0.00 0.00 0.00 0.00 0.00 0.00 0.00 0.01 0.00 0.01 0.00 0.00
0.04 0.15 0.04 0.05 0.06 0.14 0.11 0.22 0.03 0.03 0.01 0.00 0.00 0.00 0.00 0.00 0.01 0.01 0.02 0.01 0.00 0.00 0.01 0.01 0.00 0.02 0.04 0.01 0.06 0.13 0.04 0.07 0.23 0.28 0.10 0.00 0.00 0.00 0.01 0.03 0.08 0.04 0.01 0.02 0.01 0.00 0.01 0.01 0.01
0.06 0.10 0.11 0.12 0.08 0.07 0.08 0.09 0.01 0.04 0.02 0.00 0.00 0.00 0.00 0.00 0.00 0.00 0.01 0.01 0.00 0.00 0.01 0.00 0.01 0.02 0.04 0.01 0.07 0.07 0.00 0.04 0.10 0.05 0.03 0.00 0.00 0.00 0.03 0.01 0.00 0.01 0.02 0.02 0.02 0.01 0.02 0.00 0.00
0.00 0.05 0.16 0.19 0.18 0.09 0.09 0.31 0.07 0.08 0.01 0.00 0.00 0.00 0.00 0.00 0.00 0.00 0.00 0.00 0.00 0.00 0.01 0.00 0.01 0.00 0.01 0.01 0.03 0.02 0.00 0.03 0.03 0.02 0.02 0.10 0.06 0.00 0.06 0.02 0.03 0.06 0.05 0.02 0.02 0.00 0.01 0.00 0.00
0.00 0.07 0.82 0.47 0.08 0.15 0.19 0.54 0.38 0.05 0.02 0.00 0.00 0.00 0.00 0.00 0.00 0.00 0.00 0.00 0.00 0.00 0.00 0.00 0.01 0.00 0.00 0.00 0.00 0.00 0.00 0.01 0.01 0.00 0.00 0.03 0.08 0.01 0.09 0.08 0.31 0.05 0.04 0.03 0.03 0.01 0.02 0.00 0.00
0.00 0.08 0.29 0.28 0.05 0.18 0.13 0.61 0.11 0.01 0.00 0.00 0.00 0.00 0.00 0.00 0.00 0.00 0.00 0.00 0.00 0.00 0.00 0.00 0.01 0.00 0.00 0.00 0.00 0.00 0.00 0.01 0.00 0.00 0.00 0.00 0.03 0.00 0.04 0.19 0.24 0.03 0.09 0.02 0.10 0.04 0.02 0.00 0.00
0.02 0.16 0.31 0.29 0.09 0.03 0.02 0.09 0.03 0.00 0.00 0.00 0.00 0.00 0.00 0.00 0.00 0.00 0.00 0.00 0.00 0.00 0.00 0.00 0.00 0.00 0.01 0.03 0.00 0.01 0.00 0.00 0.00 0.00 0.00 0.00 0.00 0.00 0.02 0.05 0.01 0.01 0.03 0.07 0.26 0.05 0.01 0.00 0.01
0.00 0.01 0.16 0.27 0.01 0.00 0.00 0.01 0.02 0.01 0.01 0.00 0.00 0.00 0.00 0.00 0.00 0.00 0.00 0.00 0.00 0.00 0.00 0.00 0.00 0.00 0.04 0.04 0.01 0.01 0.00 0.00 0.00 0.00 0.00 0.00 0.00 0.00 0.00 0.01 0.02 0.00 0.00 0.06 0.00 0.00 0.00 0.00 0.03
0.00 0.00 0.00 0.01 0.00 0.00 0.00 0.00 0.01 0.01 0.02 0.02 0.00 0.00 0.00 0.00 0.00 0.00 0.00 0.00 0.00 0.00 0.00 0.00 0.00 0.01 0.06 0.03 0.00 0.00 0.00 0.00 0.00 0.00 0.00 0.00 0.00 0.00 0.00 0.00 0.00 0.00 0.01 0.03 0.02 0.00 0.00 0.00 0.01
0.00 0.00 0.00 0.01 0.01 0.00 0.00 0.00 0.00 0.06 0.16 0.07 0.01 0.00 0.00 0.00 0.00 0.00 0.00 0.00 0.00 0.00 0.00 0.00 0.01 0.01 0.02 0.03 0.01 0.01 0.01 0.00 0.00 0.01 0.00 0.00 0.00 0.00 0.00 0.00 0.00 0.01 0.01 0.07 0.07 0.03 0.03 0.01 0.02
0.00 0.00 0.00 0.00 0.00 0.00 0.00 0.00 0.04 0.06 0.03 0.01 0.00 0.00 0.00 0.00 0.00 0.00 0.00 0.00 0.00 0.00 0.00 0.00 0.00 0.00 0.00 0.03 0.00 0.00 0.00 0.00 0.00 0.00 0.01 0.00 0.00 0.00 0.00 0.00 0.00 0.00 0.00 0.06 0.05 0.00 0.03 0.03 0.02
0.00 0.00 0.00 0.00 0.00 0.00 0.00 0.00 0.00 0.00 0.01 0.00 0.00 0.00 0.00 0.00 0.00 0.00 0.00 0.00 0.00 0.00 0.00 0.00 0.00 0.00 0.00 0.00 0.03 0.02 0.00 0.00 0.00 0.00 0.01 0.01 0.01 0.00 0.00 0.00 0.00 0.00 0.00 0.01 0.00 0.01 0.01 0.02 0.03
0.00 0.00 0.00 0.00 0.00 0.00 0.00 0.00 0.01 0.06 0.02 0.00 0.00 0.00 0.01 0.00 0.01 0.01 0.02 0.01 0.01 0.00 0.00 0.00 0.00 0.00 0.00 0.00 0.01 0.02 0.01 0.00 0.03 0.03 0.05 0.04 0.02 0.00 0.00 0.00 0.00 0.00 0.00 0.03 0.03 0.01 0.00 0.00 0.02
0.00 0.00 0.00 0.00 0.00 0.00 0.00 0.00 0.00 0.04 0.04 0.01 0.00 0.00 0.00 0.01 0.01 0.00 0.04 0.04 0.03 0.01 0.00 0.00 0.00 0.00 0.00 0.00 0.00 0.00 0.00 0.00 0.04 0.04 0.02 0.16 0.05 0.03 0.00 0.01 0.02 0.00 0.01 0.02 0.04 0.03 0.03 0.02 0.02
0.00 0.00 0.00 0.00 0.00 0.01 0.00 0.00 0.00 0.00 0.00 0.00 0.00 0.00 0.06 0.02 0.02 0.02 0.04 0.01 0.00 0.00 0.00 0.00 0.00 0.00 0.00 0.00 0.00 0.00 0.00 0.01 0.02 0.01 0.01 0.08 0.09 0.02 0.04 0.06 0.04 0.02 0.02 0.05 0.03 0.03 0.02 0.02 0.06
0.00 0.00 0.00 0.00 0.00 0.00 0.01 0.02 0.01 0.00 0.00 0.00 0.00 0.02 0.05 0.02 0.05 0.08 0.07 0.03 0.00 0.00 0.00 0.00 0.00 0.00 0.00 0.00 0.00 0.00 0.00 0.00 0.00 0.00 0.02 0.00 0.01 0.04 0.04 0.02 0.05 0.03 0.03 0.03 0.15 0.13 0.04 0.10 0.06
0.00 0.00 0.00 0.00 0.00 0.00 0.00 0.00 0.01 0.01 0.01 0.01 0.01 0.09 0.10 0.08 0.06 0.10 0.10 0.05 0.02 0.00 0.00 0.00 0.00 0.00 0.00 0.01 0.01 0.00 0.00 0.00 0.01 0.05 0.03 0.00 0.00 0.00 0.05 0.07 0.06 0.02 0.07 0.11 0.17 0.07 0.06 0.16 0.09
0.00 0.00 0.00 0.00 0.00 0.00 0.00 0.00 0.00 0.00 0.00 0.00 0.00 0.06 0.07 0.28 0.07 0.08 0.09 0.03 0.03 0.01 0.01 0.00 0.00 0.00 0.00 0.05 0.06 0.00 0.00 0.00 0.00 0.00 0.01 0.00 0.01 0.03 0.02 0.03 0.07 0.07 0.10 0.12 0.16 0.09 0.16 0.18 0.14
0.00 0.00 0.00 0.00 0.00 0.00 0.00 0.00 0.00 0.00 0.00 0.00 0.00 0.04 0.46 0.60 0.18 0.06 0.12 0.02 0.01 0.01 0.00 0.00 0.00 0.00 0.00 0.01 0.04 0.05 0.03 0.02 0.01 0.02 0.01 0.02 0.02 0.05 0.07 0.10 0.11 0.09 0.07 0.09 0.11 0.14 0.11 0.14 0.12